Location: Melbourne
(37.8170°S, 144.9670°E)
Time: 10:05:30
(UTC+10:00)

Daily predictions for brighter satellites

Satellite Brightness Start Highest point End
(mag) Time Altitude Azimuth Time Altitude Azimuth Time Altitude Azimuth
Ariane Rocket 3.2 17:27:36 10° S 17:32:45 80° WSW 17:37:49 10° NNW
BREEZE-M DEB (TANK) 3.9 17:31:00 10° W 17:33:23 31° SSW 17:38:37 10° SE
SJ-6F 4.5 17:30:17 10° SSE 17:34:32 84° ENE 17:38:41 10° N
SKYMED 2 3.6 17:32:11 10° NNE 17:36:33 77° ESE 17:40:58 10° S
Meteor 1-20 Rocket 4.5 17:34:52 10° NNE 17:40:15 49° E 17:45:36 10° SSE
Okean 1-7 Rocket 4.5 17:37:08 10° SSE 17:41:08 29° ESE 17:45:02 10° NE
Cosmos 2237 Rocket 4.0 17:39:25 10° SW 17:44:36 37° WNW 17:49:42 10° N
ATLAS 3B R/B 3.1 17:38:57 10° SSW 17:45:41 44° SE 17:52:44 10° ENE
Cosmos 2227 4.5 17:40:32 10° N 17:46:07 53° ENE 17:51:46 10° SSE
Cosmos 1536 Rocket 3.6 17:42:10 10° S 17:46:43 84° E 17:51:15 10° N
Cosmos 2251 Rocket 3.5 17:44:15 10° SSW 17:49:34 80° ESE 17:54:51 10° NNE
Meteor 1-29 3.1 17:49:45 10° NNE 17:53:15 57° ESE 17:56:46 10° S
CZ-4C R/B 4.2 17:57:43 10° SSE 17:57:58 10° SSE 17:58:12 10° SSE
Okean 1 Rocket 3.2 17:55:16 10° N 17:59:41 57° E 18:04:10 10° SSE
ASTRO E2 4.3 17:59:56 10° NW 18:03:23 27° NNE 18:06:52 10° ENE
ATLAS 2AS CENTAUR R/B 2.7 17:56:51 10° NW 18:03:31 77° WSW 18:09:42 10° SSE
CZ-4 R/B 1.5 18:03:37 10° SSE 18:07:52 61° E 18:12:02 10° N
Abrixas 2.9 18:04:52 10° WSW 18:08:02 67° NW 18:11:11 10° NE
YAOGAN 1 2.9 18:08:21 10° SSE 18:12:36 46° E 18:16:48 10° N
SL-16 R/B 3.3 18:08:41 10° SSW 18:14:11 49° WNW 18:19:38 10° N
Cosmos 494 Rocket 4.0 18:11:50 10° SSW 18:17:07 88° WNW 18:22:17 10° NNE
Cosmos 1300 Rocket 3.8 18:13:57 10° N 18:18:23 77° W 18:22:55 10° S
Cosmos 1633 4.1 18:15:54 10° NE 18:18:06 19° E 18:18:06 19° E
Okean 1 3.3 18:14:44 10° S 18:18:53 84° E 18:23:00 10° N
SAR-Lupe-4 4.2 18:20:10 20° SE 18:22:03 34° E 18:25:22 10° NNE
USA 238 DEB 4.2 18:20:00 10° SSW 18:26:39 39° SE 18:32:16 14° ENE
USA 238 4.3 18:20:07 10° SSW 18:26:45 38° SE 18:32:15 15° ENE
Aureole 2 Rocket 3.1 18:22:20 10° SSW 18:26:53 87° WNW 18:31:21 10° NNE
BREEZE-M DEB (TANK) 3.9 18:25:53 10° WSW 18:28:44 39° NNW 18:32:19 10° NE
Cosmos 2056 Rocket 4.4 18:24:37 10° NNE 18:28:47 26° E 18:29:43 24° E
Meteor 1-11 Rocket 3.8 18:23:31 10° N 18:29:19 64° E 18:35:05 10° SSE
Cosmos 921 Rocket 4.5 18:30:02 10° NW 18:34:10 38° WSW 18:38:24 10° S
GPS 2-04 Rocket1 3.3 18:34:19 10° WNW 18:38:32 50° NNE 18:40:09 31° ENE
SJ-12 3.9 18:36:50 15° SSE 18:40:13 67° ENE 18:44:20 10° N
Cosmos 2123 Rocket 4.4 18:35:53 10° SSW 18:42:09 68° W 18:48:18 10° N
Meteor 1-28 Rocket 3.6 18:39:32 10° N 18:43:15 65° W 18:47:02 10° SSW
Cosmos 1603 3.9 18:37:45 10° SSW 18:43:33 75° WNW 18:49:12 10° NNE
CZ-4 R/B 4.3 18:41:39 15° SSE 18:45:04 77° E 18:49:16 10° N
Meteor 1-23 Rocket 4.4 18:42:33 10° S 18:48:00 48° ESE 18:53:23 10° NNE
Cosmos 1605 Rocket 4.5 18:42:30 10° NNW 18:48:51 65° W 18:55:19 10° S
PAYLOAD A 4.1 18:47:07 10° SSE 18:52:25 88° WSW 18:57:48 10° NNW
Cosmos 1459 Rocket 4.0 18:48:27 10° NNE 18:54:26 56° E 19:00:13 11° SSE
CZ-2C R/B 2.5 18:50:23 17° SSE 18:54:27 66° E 18:59:37 10° N
Cosmos 1455 Rocket 3.7 18:51:36 10° NNE 18:54:46 36° NE 18:54:46 36° NE
Meteor 1-5 Rocket 4.4 18:52:44 10° NNE 18:57:47 41° E 18:57:47 41° E
IDEFIX/ARIANE 42P 2.6 18:55:39 33° SE 18:57:49 55° E 19:02:55 10° N
Cosmos 1602 4.2 18:55:12 10° NNW 18:59:03 61° W 19:01:58 17° S
Cosmos 1536 2.8 18:55:36 10° N 18:59:39 86° W 19:01:24 34° S
Cosmos 44 Rocket 3.5 18:56:29 10° N 19:00:52 46° ENE 19:00:52 46° ENE
Meteor 2-4 Rocket 3.6 18:55:46 10° S 19:01:19 64° E 19:06:58 10° NNE
COSMOS 2455 4.0 18:57:17 10° SW 19:02:57 43° WNW 19:08:33 10° N
Cosmos 1025 Rocket 3.2 19:00:39 10° S 19:05:06 75° W 19:09:31 10° N
Cosmos 1943 3.1 18:59:57 10° SSW 19:05:37 69° ESE 19:09:42 19° NNE
SL-19 R/B 4.2 19:05:01 21° SSE 19:08:57 83° ENE 19:14:43 10° NNW
SMAP 3.8 19:04:31 10° S 19:09:07 52° WSW 19:13:39 10° NNW
Lacrosse 4 Rocket 1.3 19:07:52 10° SSW 19:12:09 83° WNW 19:12:27 75° N
Meteor 1-19 Rocket 4.5 19:07:25 10° SSW 19:13:16 72° W 19:18:59 10° N
Cosmos 2016 Rocket 3.9 19:09:07 10° N 19:15:07 58° E 19:16:11 51° SE
Cosmos 2100 Rocket 4.0 19:08:54 10° N 19:15:19 89° ENE 19:21:48 10° S
DELTA 2 R/B (1) 3.5 19:10:30 10° W 19:16:06 74° S 19:16:52 64° SE
Cosmos 1544 Rocket 3.7 19:12:36 10° NNW 19:16:57 73° W 19:17:55 52° SSW
Cosmos 1624 Rocket 3.9 19:13:41 10° NNW 19:19:02 88° ENE 19:20:16 55° SSE
NOSS 3-4 (A) 4.1 19:14:01 10° N 19:21:19 47° ENE 19:21:48 47° ENE
NOSS 3-4 (C) 4.1 19:14:09 10° N 19:21:25 47° ENE 19:21:51 47° ENE
Cosmos 2263 Rocket 2.0 19:17:16 10° NNW 19:22:52 86° ENE 19:23:48 63° SSE
Cosmos 1892 Rocket 3.8 19:18:44 10° SSW 19:23:09 70° W 19:27:31 10° N
ATLAS 3B R/B 4.1 19:29:48 10° SW 19:36:19 39° WNW 19:43:09 10° N
CZ-4C R/B 3.9 19:42:43 10° SSW 19:45:04 22° S 19:45:04 22° S
SL-08 R/B 4.5 19:42:44 10° N 19:48:45 79° N 19:48:45 79° N
